Location: Cabo di Oristano
(39.8500°N, 8.4333°E)
Time: 17:41:21
(UTC+00:00)

USA 229 - Pass Details

Date: 31 January 2023
Orbit: 916 x 1296 km, 63.4° (Epoch: 30 March)

Event Time Altitude Azimuth Distance (km) Brightness Sun altitude
Exits shadow 04:02:52 14° 183° (S) 2,349 5.4 -29.5°
Maximum altitude 04:07:49 45° 115° (ESE) 1,284 4.4 -28.5°
Drops below altitude 10° 04:14:00 10° 45° (NE) 2,817 6.4 -27.4°
Sets 04:16:49 0° 39° (NE) 3,830 7.1 -26.8°
